Powrót do katalogu

SL-6 R/B(2)

AktywnyHEO
NORAD 13016·ROCKET BODY·🇷🇺 Russia

Wystrzelony Dec 23, 1981 z Baikonur Cosmodrome

Loading…

Następne Przeloty (najbliższe 24 godziny)

TLE

ŚwieżeSource: Space-Track

Epoka: Sep 13, 2026, 04:55 UTC

1 13016U 81123D   26256.20532307  .00000031  00000-0  25753-3 0  9998
2 13016  63.0523 350.8332 7129356 286.4272  11.3349  2.40518679362486

Śledź SL-6 R/B(2) w czasie rzeczywistym z AllMySat

Download on the App Store